Temperature
6 6 6 6 6 7 7 7 7 7 7 7 7 7 7 7 7 7 7 7 7 7 7 7 7 7 7 7 7 7 7 7 7 6 6 6 6 6 6 6 6 6 6
6 6 6 6 6 6 6 6 7 7 7 7 7 7 7 7 7 7 7 7 7 7 7 7 6 6 6 6 6 6 6 6 6 6 6 6 6 6 6 6 6 6 6
5 5 5 5 5 6 6 6 6 6 6 6 6 6 6 6 6 6 6 6 6 6 6 6 6 6 6 6 6 6 6 6 5 5 5 5 5 5 5 5 5 5 5
5 5 5 5 5 5 5 5 5 5 5 5 5 5 5 5 5 5 5 5 5 5 5 5 5 5 5 5 5 5 5 5 5 5 5 4 4 4 4 4 5 5 5
5 5 5 5 5 5 5 5 5 5 5 5 5 5 5 5 5 5 5 5 5 5 5 5 5 5 5 4 4 4 4 4 4 4 4 4 4 4 4 4 4 4 4
4 4 4 4 4 4 4 5 5 4 4 4 4 4 4 4 4 4 4 4 4 4 4 4 4 4 4 4 4 4 4 4 4 4 3 4 4 3 3 3 3 3 3
4 4 4 4 4 4 4 4 4 4 4 4 4 3 3 3 3 3 3 3 3 3 3 3 3 3 3 3 3 3 3 3 3 3 3 3 3 3 3 2 2 2 3
3 3 3 4 3 3 4 4 3 3 3 3 3 3 3 3 3 3 3 3 3 3 2 2 2 2 2 2 2 3 3 3 3 3 2 2 2 2 2 2 2 2 2
3 3 3 3 3 3 3 3 3 3 3 3 3 2 2 2 2 2 2 2 2 2 2 2 2 2 2 2 2 2 2 2 2 2 2 2 2 2 1 1 1 1 1
2 2 2 2 2 2 2 2 2 2 2 2 2 2 2 2 2 1 1 1 1 1 1 1 1 1 1 1 1 1 1 1 1 1 1 1 1 1 1 0 0 0 0
2 2 2 2 2 2 2 2 2 1 1 1 1 1 1 1 1 1 1 1 1 1 1 1 1 1 1 1 1 1 1 0 0 1 1 1 1 0 0 -0 -0 -0 -0
1 1 1 1 1 1 1 1 1 1 1 1 1 1 1 0 0 0 0 0 0 0 0 0 0 0 0 0 0 0 0 -0 -0 -0 -0 -0 -0 -0 -0 -0 -1 -1 -1
0 0 0 0 1 0 0 0 0 0 0 -0 -0 -0 -0 -0 -0 -0 -0 -0 -0 -0 -0 -0 -0 -0 -0 -0 -0 -0 -1 -1 -1 -1 -1 -1 -1 -1 -1 -1 -1 -1 -1
-0 -0 -0 -0 -0 -0 -0 -0 -0 -1 -1 -1 -1 -1 -1 -1 -1 -1 -1 -1 -1 -1 -1 -1 -1 -1 -1 -1 -1 -1 -1 -1 -1 -1 -1 -1 -1 -1 -2 -2 -2 -2 -1
-1 -1 -1 -1 -1 -1 -1 -1 -1 -1 -1 -1 -1 -1 -1 -1 -1 -1 -1 -1 -1 -1 -1 -1 -1 -1 -1 -1 -2 -2 -2 -2 -2 -2 -2 -2 -2 -2 -2 -2 -2 -2 -2
-1 -1 -1 -1 -1 -1 -2 -2 -2 -2 -2 -2 -2 -2 -2 -2 -2 -2 -2 -2 -2 -2 -2 -2 -2 -2 -2 -2 -2 -2 -2 -2 -2 -2 -3 -3 -3 -3 -3 -3 -3 -3 -3
-2 -2 -2 -2 -2 -2 -2 -2 -2 -2 -2 -2 -2 -2 -2 -2 -2 -2 -2 -2 -2 -2 -2 -2 -2 -2 -3 -3 -3 -3 -3 -3 -3 -3 -3 -3 -3 -3 -4 -4 -4 -4 -3
-2 -2 -2 -2 -2 -2 -2 -3 -3 -3 -3 -3 -3 -3 -3 -3 -3 -3 -3 -3 -3 -3 -3 -3 -3 -3 -3 -3 -3 -3 -3 -3 -4 -4 -4 -4 -4 -4 -4 -4 -4 -4 -4
-3 -3 -3 -3 -3 -3 -3 -3 -3 -3 -3 -3 -3 -3 -3 -3 -3 -3 -3 -3 -3 -3 -4 -4 -4 -4 -4 -4 -4 -4 -4 -4 -4 -4 -4 -4 -4 -5 -5 -4 -4 -4 -5
-3 -3 -3 -3 -3 -3 -4 -4 -4 -4 -4 -4 -4 -4 -4 -4 -4 -4 -4 -4 -4 -4 -4 -4 -4 -4 -4 -4 -4 -4 -4 -4 -4 -5 -5 -5 -5 -5 -5 -5 -5 -5 -5
-4 -4 -4 -4 -4 -4 -4 -4 -4 -4 -4 -4 -4 -4 -4 -4 -4 -4 -4 -4 -4 -4 -5 -5 -5 -5 -5 -5 -5 -5 -5 -5 -5 -5 -5 -5 -5 -5 -5 -5 -5 -6 -5
-4 -4 -4 -4 -4 -4 -4 -4 -5 -5 -5 -5 -5 -5 -5 -5 -5 -5 -5 -5 -5 -5 -5 -5 -5 -5 -5 -5 -5 -5 -5 -5 -5 -5 -5 -5 -5 -6 -6 -6 -6 -6 -6
-5 -5 -5 -5 -5 -5 -5 -5 -5 -5 -5 -5 -5 -5 -5 -5 -5 -5 -5 -5 -5 -5 -5 -5 -5 -5 -5 -6 -6 -6 -6 -6 -6 -6 -6 -6 -6 -6 -6 -6 -6 -6 -6
-5 -5 -5 -5 -5 -5 -5 -5 -5 -5 -5 -5 -6 -6 -6 -5 -5 -5 -5 -5 -5 -6 -6 -6 -6 -6 -6 -6 -6 -6 -6 -6 -6 -6 -6 -6 -6 -6 -6 -6 -6 -6 -6
-6 -6 -6 -6 -6 -6 -6 -6 -6 -6 -6 -6 -6 -6 -6 -6 -6 -6 -6 -6 -6 -6 -6 -6 -6 -6 -6 -6 -6 -6 -6 -6 -6 -6 -6 -6 -6 -6 -6 -6 -6 -7 -7
-7 -6 -6 -6 -6 -6 -6 -6 -6 -6 -6 -6 -6 -7 -7 -7 -7 -6 -6 -6 -6 -6 -6 -7 -7 -7 -7 -7 -6 -6 -7 -6 -6 -6 -6 -6 -6 -6 -7 -7 -7 -7 -7
Wind_Speed
5 4 4 4 4 4 4 3 3 3 3 3 3 3 3 2 2 2 2 2 2 2 2 2 2 2 2 1 1 1 2 2 3 3 1 1 1 2 2 3 4 4 5
5 5 5 4 4 4 4 3 3 3 3 2 2 2 2 2 2 2 2 2 2 2 2 2 2 2 2 2 2 2 2 2 3 4 3 2 2 3 3 3 3 4 5
6 5 5 5 4 4 4 3 3 3 3 3 3 2 2 2 1 1 2 2 1 2 2 3 2 2 2 2 2 2 2 2 1 3 3 2 2 2 2 3 3 3 5
6 5 5 5 5 4 4 3 3 3 3 3 2 2 2 2 1 1 1 1 1 1 2 2 2 3 3 3 3 3 2 2 1 2 3 2 2 2 2 3 3 3 3
6 6 5 5 5 4 4 3 3 3 2 3 3 2 1 1 1 1 1 1 1 1 1 1 1 2 2 3 3 3 3 3 3 3 3 3 3 2 3 3 4 3 3
5 5 5 5 4 4 4 4 3 2 2 3 2 2 1 1 1 1 1 1 1 1 1 1 1 2 3 3 3 4 3 4 4 4 4 5 5 4 3 3 3 3 4
5 5 5 5 5 4 4 4 3 3 3 3 2 2 2 2 2 1 0 1 1 2 2 2 2 2 2 2 3 4 4 6 7 5 6 6 5 5 4 4 4 4 5
4 4 4 5 5 4 4 3 3 3 2 2 2 2 2 2 2 2 1 1 2 2 3 3 3 3 3 2 2 2 3 4 6 5 5 5 5 4 4 5 5 5 4
4 3 3 4 4 4 4 3 3 3 2 2 2 2 2 2 3 3 2 1 1 2 2 2 3 3 4 4 3 3 3 4 6 7 7 8 8 7 6 3 3 3 5
3 3 3 3 4 4 4 3 2 2 2 2 2 2 2 2 3 3 2 2 2 2 2 2 3 4 5 4 3 3 4 5 4 4 5 6 6 6 7 5 5 4 4
3 3 3 2 3 3 3 2 3 2 2 2 2 1 2 2 3 4 3 2 2 2 2 2 3 5 5 6 5 4 6 6 4 4 4 4 4 4 4 4 5 5 5
3 3 3 2 2 2 2 2 2 3 2 2 1 1 1 1 2 3 4 4 3 3 3 3 3 4 5 6 6 7 8 7 3 3 4 4 4 4 4 4 6 6 7
4 3 2 2 2 2 3 3 2 2 2 2 2 2 1 1 2 3 4 4 4 3 3 4 5 6 6 5 6 8 7 4 3 4 4 5 4 4 3 3 4 5 6
3 2 2 2 2 2 2 2 2 2 2 2 2 2 2 2 1 2 2 2 3 3 3 4 5 6 5 6 6 5 4 4 4 4 4 4 3 3 3 3 4 4 4
3 2 2 2 2 1 1 1 1 2 3 3 3 3 3 3 4 4 3 3 2 3 3 2 2 2 3 3 3 3 3 3 4 3 4 4 4 4 4 3 3 3 5
2 1 1 1 1 1 1 1 1 2 2 3 4 4 3 5 6 6 6 6 6 6 4 3 4 4 4 4 4 4 3 3 4 4 4 4 4 5 5 4 4 5 6
2 1 1 1 1 1 1 1 1 2 2 3 4 5 6 6 7 6 6 6 7 6 3 3 4 4 4 4 4 4 4 4 4 4 4 4 4 5 5 5 5 5 6
1 1 1 1 1 1 1 1 1 2 2 2 3 4 6 6 6 6 6 5 4 4 3 4 4 4 4 4 4 4 4 4 4 4 4 4 5 5 5 6 6 6 6
1 1 1 1 1 1 1 1 2 2 2 3 2 3 4 5 5 6 5 3 4 4 4 4 5 5 4 5 5 5 5 5 4 4 4 5 5 5 6 6 6 8 7
0 1 1 1 1 1 1 2 2 2 2 3 3 3 2 3 3 3 3 3 4 4 4 5 5 5 4 5 5 5 5 5 5 5 5 5 5 5 6 7 6 6 6
0 1 2 1 1 2 2 2 2 2 3 3 3 4 6 3 4 4 4 4 4 4 4 4 4 4 4 4 4 5 5 5 5 5 5 5 5 5 5 5 6 6 5
1 1 1 2 2 2 2 2 2 2 3 4 4 4 7 4 3 4 4 4 4 4 4 4 5 5 5 5 5 5 5 5 5 5 5 5 5 5 5 5 6 5 5
1 1 2 2 2 3 3 2 2 3 3 4 4 4 4 4 4 4 5 4 4 4 4 4 5 5 5 6 6 6 6 6 6 5 6 6 6 6 5 6 6 6 6
2 2 2 3 2 2 3 3 3 3 4 4 4 4 4 4 4 5 4 4 4 4 5 5 5 6 7 7 7 8 9 9 8 7 7 7 7 6 6 6 7 7 6
2 2 3 3 3 3 3 3 3 4 4 4 4 4 4 4 4 4 4 4 4 4 5 6 6 6 8 9 9 9 11 12 11 10 8 7 7 7 7 7 7 6 6
3 3 3 3 3 3 3 4 4 4 4 4 4 4 4 4 4 4 4 4 4 4 5 5 7 8 9 9 10 11 12 12 12 12 9 6 7 7 7 6 7 7 7
Wind_Direction
145 143 133 126 122 120 118 116 112 106 113 129 134 134 133 130 126 127 134 146 156 174 174 179 196 167 181 205 203 221 233 211 238 265 265 238 239 248 258 257 256 253 258
145 144 137 130 123 119 117 113 109 109 112 117 118 121 130 135 142 154 164 163 175 189 194 195 206 186 181 205 205 221 237 234 228 257 264 252 248 244 238 237 252 261 257
144 145 141 138 132 129 127 124 117 113 117 117 114 122 125 126 132 156 170 173 178 196 198 201 209 190 201 208 208 227 245 258 245 249 263 258 260 250 249 253 248 264 267
147 152 152 153 147 143 137 131 127 125 125 122 116 115 111 106 109 125 135 155 165 198 204 205 208 203 206 206 214 225 232 243 244 250 261 262 263 258 242 250 264 257 261
152 157 158 153 144 139 139 137 131 129 124 119 112 105 102 107 131 128 127 161 194 230 232 218 215 209 222 225 228 221 219 227 234 243 255 259 257 248 246 253 262 270 263
153 157 152 146 143 142 142 137 130 132 126 123 133 139 143 181 153 155 193 221 238 246 262 271 265 247 241 255 262 251 235 229 233 237 250 247 249 247 249 250 259 270 275
148 148 149 146 146 149 149 143 147 152 140 143 153 151 165 178 181 194 206 256 261 255 247 251 269 269 267 248 265 274 272 265 257 248 247 250 249 240 238 251 254 263 264
145 148 150 150 150 151 151 157 165 159 155 160 163 170 182 203 201 216 222 245 251 251 242 235 236 248 253 255 257 266 269 270 260 250 243 254 255 246 234 245 251 268 278
147 152 155 155 155 155 160 167 168 158 165 178 184 188 206 224 216 219 222 217 230 254 253 244 239 248 256 259 255 259 277 283 286 269 264 267 269 265 260 253 251 264 278
147 145 139 143 154 164 170 172 170 167 177 179 187 199 209 225 231 231 231 211 223 246 261 260 258 255 254 255 246 242 261 273 278 282 278 278 270 260 258 239 231 248 272
135 130 131 137 152 166 172 171 161 163 166 177 192 217 213 217 223 233 241 224 219 233 247 257 257 256 253 254 258 249 259 274 273 268 272 274 268 256 250 249 242 237 250
130 133 138 140 155 154 151 159 159 162 165 182 193 228 238 223 226 233 242 253 241 227 238 244 249 264 271 271 268 267 272 278 270 266 266 266 260 258 256 259 257 257 254
125 133 139 140 154 161 157 159 165 172 178 191 199 215 232 230 227 243 251 258 258 250 246 252 265 273 283 283 275 273 274 264 259 261 263 264 253 250 258 273 277 272 272
126 135 139 138 142 138 144 159 172 184 194 205 210 216 232 244 242 242 245 263 265 264 261 262 274 276 276 276 278 273 256 249 253 255 263 263 259 254 259 259 268 272 279
131 142 142 145 150 144 138 178 201 217 209 210 215 213 216 240 247 246 247 249 248 246 261 260 261 262 260 262 262 261 249 250 256 251 252 260 266 270 269 257 255 262 264
129 131 144 158 162 158 143 30 345 254 252 248 245 243 249 250 260 270 272 268 267 261 257 238 245 247 253 257 259 263 258 254 252 249 252 258 264 266 272 267 258 258 260
135 154 169 186 181 169 166 176 282 326 308 274 260 260 257 256 259 265 269 271 269 265 254 241 245 248 253 255 256 258 260 259 253 252 257 258 261 265 267 267 264 264 262
129 193 213 211 201 190 203 223 232 248 286 299 289 269 263 263 263 263 263 272 267 260 246 245 249 249 249 252 254 256 259 260 257 255 256 256 256 261 264 265 263 260 264
155 193 207 224 218 216 224 232 241 248 256 269 281 281 269 269 270 263 260 244 244 251 250 250 252 254 253 254 256 254 252 255 255 252 255 256 257 258 261 261 262 263 266
184 249 255 241 239 236 232 232 237 239 249 257 264 266 269 273 262 261 253 241 243 249 249 251 253 253 255 256 255 252 253 253 251 253 254 255 257 257 261 263 261 262 265
261 257 267 263 252 248 243 241 245 254 264 268 268 272 274 264 257 257 254 250 247 249 250 252 254 254 253 254 255 253 252 253 251 251 251 252 256 263 263 263 263 263 266
257 258 259 251 260 261 264 256 255 258 263 269 276 281 285 279 264 260 260 259 256 251 246 249 254 252 248 247 248 251 252 254 252 250 253 256 259 262 264 265 264 263 262
272 273 276 274 266 265 271 264 259 259 264 268 273 276 277 273 270 267 264 264 262 258 254 250 254 257 255 250 248 244 246 250 249 248 253 257 257 257 257 260 257 258 260
273 266 265 269 269 264 262 261 260 261 263 267 271 273 276 278 278 278 276 274 269 266 262 259 257 256 258 263 260 254 252 253 252 248 246 249 254 257 257 257 256 253 253
278 272 268 264 265 266 268 269 270 271 272 273 274 277 281 280 279 280 280 277 273 271 269 268 267 265 262 262 261 259 259 260 260 257 249 245 248 250 253 254 254 256 254
279 274 273 272 270 269 269 271 273 275 276 278 280 280 281 282 282 282 283 282 280 277 276 274 271 270 270 268 266 265 266 267 267 264 257 247 245 248 249 252 251 251 252
Height
1456 1458 1460 1463 1465 1468 1470 1472 1475 1477 1479 1481 1483 1484 1486 1488 1490 1491 1493 1494 1496 1497 1498 1500 1501 1502 1504 1505 1506 1507 1508 1508 1507 1507 1509 1509 1510 1509 1509 1510 1510 1509 1509
1454 1456 1459 1461 1463 1465 1468 1470 1473 1475 1477 1478 1480 1482 1484 1485 1487 1488 1490 1491 1492 1493 1495 1496 1497 1498 1499 1501 1502 1503 1503 1503 1503 1502 1503 1504 1505 1505 1505 1505 1505 1505 1505
1453 1455 1457 1459 1461 1463 1466 1468 1470 1472 1474 1476 1478 1479 1481 1482 1484 1485 1486 1487 1488 1490 1491 1492 1493 1494 1495 1496 1497 1498 1499 1499 1499 1499 1498 1499 1500 1500 1500 1500 1500 1500 1500
1451 1453 1455 1457 1459 1462 1464 1466 1468 1470 1472 1473 1475 1476 1478 1479 1481 1482 1483 1484 1485 1486 1487 1488 1489 1490 1491 1492 1493 1493 1494 1494 1495 1495 1494 1494 1495 1495 1496 1495 1494 1495 1495
1449 1451 1453 1456 1458 1460 1462 1464 1466 1468 1469 1471 1472 1473 1475 1476 1477 1478 1479 1480 1481 1482 1483 1483 1484 1485 1487 1488 1488 1489 1490 1490 1490 1490 1490 1490 1490 1490 1490 1490 1490 1489 1489
1447 1449 1451 1453 1456 1458 1460 1462 1464 1466 1467 1468 1469 1470 1472 1473 1475 1476 1477 1477 1478 1478 1478 1479 1480 1481 1482 1483 1484 1485 1486 1486 1486 1486 1485 1485 1485 1485 1486 1486 1485 1484 1482
1444 1446 1448 1451 1453 1455 1457 1459 1461 1463 1464 1465 1467 1468 1469 1470 1471 1472 1473 1474 1474 1474 1475 1475 1476 1477 1478 1479 1480 1480 1481 1481 1482 1482 1481 1480 1480 1480 1480 1480 1480 1479 1478
1441 1443 1446 1448 1450 1452 1454 1456 1458 1460 1461 1462 1463 1464 1465 1467 1468 1469 1469 1470 1470 1470 1471 1472 1472 1473 1474 1475 1475 1475 1475 1476 1477 1476 1476 1476 1476 1476 1476 1476 1475 1474 1473
1438 1441 1443 1445 1447 1449 1451 1453 1455 1456 1458 1459 1460 1461 1462 1463 1464 1465 1465 1466 1466 1466 1467 1468 1468 1468 1469 1470 1470 1470 1470 1470 1471 1471 1471 1470 1470 1471 1471 1470 1469 1468 1466
1436 1438 1440 1442 1444 1446 1448 1450 1452 1453 1454 1455 1456 1457 1458 1459 1460 1460 1461 1461 1461 1462 1463 1463 1464 1464 1465 1465 1466 1465 1464 1465 1465 1465 1465 1464 1464 1465 1465 1465 1464 1463 1461
1434 1435 1437 1439 1441 1443 1444 1446 1448 1449 1450 1452 1453 1454 1454 1455 1456 1457 1457 1457 1458 1458 1458 1459 1459 1460 1460 1461 1461 1460 1460 1460 1459 1459 1458 1458 1458 1458 1458 1458 1459 1458 1456
1431 1433 1434 1436 1437 1439 1441 1442 1444 1445 1446 1447 1448 1449 1450 1451 1452 1452 1453 1454 1454 1454 1454 1454 1455 1455 1455 1456 1456 1455 1455 1455 1454 1453 1452 1452 1452 1452 1452 1452 1452 1452 1451
1429 1430 1431 1433 1435 1436 1437 1439 1440 1441 1442 1443 1444 1445 1445 1446 1447 1448 1449 1449 1450 1450 1450 1450 1450 1450 1450 1450 1451 1450 1450 1449 1449 1448 1447 1446 1446 1446 1446 1446 1445 1445 1444
1426 1427 1428 1430 1431 1433 1434 1435 1436 1437 1438 1439 1440 1440 1441 1442 1443 1443 1444 1445 1445 1445 1445 1445 1445 1446 1446 1445 1445 1445 1444 1444 1443 1443 1441 1441 1441 1440 1440 1439 1438 1438 1436
1424 1425 1426 1427 1428 1429 1430 1432 1433 1434 1435 1436 1436 1437 1437 1438 1439 1440 1440 1440 1440 1440 1440 1440 1440 1440 1440 1439 1439 1439 1439 1439 1438 1437 1436 1435 1434 1434 1433 1433 1432 1431 1430
1421 1422 1423 1425 1425 1426 1427 1428 1429 1431 1431 1432 1433 1433 1433 1434 1434 1435 1436 1436 1436 1436 1436 1435 1435 1435 1434 1434 1433 1433 1433 1433 1432 1432 1431 1430 1429 1428 1427 1427 1427 1426 1424
1419 1420 1421 1422 1423 1423 1424 1425 1425 1427 1428 1428 1429 1429 1429 1430 1430 1430 1431 1431 1431 1431 1431 1430 1429 1429 1429 1428 1428 1428 1427 1427 1427 1426 1425 1424 1423 1422 1422 1421 1420 1420 1418
1418 1419 1419 1420 1420 1421 1421 1422 1423 1423 1423 1423 1425 1425 1425 1425 1425 1425 1426 1426 1426 1426 1425 1425 1424 1424 1423 1423 1422 1422 1421 1421 1421 1420 1419 1418 1417 1417 1416 1415 1415 1414 1412
1416 1417 1417 1417 1418 1418 1419 1419 1420 1420 1420 1420 1420 1421 1421 1421 1421 1421 1421 1421 1420 1420 1420 1419 1419 1419 1418 1418 1417 1417 1416 1415 1415 1414 1413 1412 1412 1411 1410 1410 1409 1408 1407
1414 1415 1415 1415 1415 1416 1416 1416 1417 1417 1417 1417 1416 1416 1416 1416 1415 1415 1416 1415 1415 1415 1414 1414 1413 1413 1412 1412 1411 1411 1410 1410 1409 1408 1407 1407 1406 1406 1405 1404 1403 1402 1401
1412 1412 1413 1413 1413 1413 1413 1413 1413 1413 1413 1413 1413 1412 1412 1412 1411 1411 1411 1410 1410 1409 1409 1408 1408 1407 1407 1406 1406 1405 1405 1404 1403 1403 1402 1401 1401 1400 1399 1399 1398 1397 1396
1409 1409 1410 1410 1410 1410 1410 1410 1410 1410 1410 1409 1408 1408 1408 1407 1406 1406 1405 1405 1404 1404 1403 1403 1402 1401 1401 1401 1400 1399 1399 1398 1398 1397 1397 1396 1395 1395 1394 1393 1392 1392 1391
1407 1407 1407 1407 1407 1407 1407 1406 1406 1406 1406 1405 1405 1404 1403 1402 1401 1400 1400 1399 1399 1398 1398 1397 1397 1396 1395 1395 1394 1394 1393 1392 1392 1392 1391 1390 1390 1389 1389 1388 1387 1387 1387
1404 1404 1404 1403 1403 1403 1403 1402 1402 1402 1402 1401 1400 1400 1399 1398 1396 1395 1395 1394 1393 1393 1392 1392 1391 1390 1390 1389 1388 1388 1387 1387 1387 1386 1386 1385 1384 1384 1384 1383 1383 1382 1382
1401 1400 1400 1400 1399 1399 1399 1398 1398 1398 1397 1397 1396 1395 1394 1393 1392 1391 1390 1389 1388 1387 1387 1386 1385 1384 1384 1383 1383 1382 1381 1381 1381 1381 1380 1380 1379 1379 1378 1378 1378 1377 1377
1397 1397 1397 1396 1396 1395 1395 1394 1394 1393 1393 1392 1391 1390 1389 1388 1387 1386 1385 1384 1383 1382 1381 1380 1380 1379 1378 1377 1377 1376 1376 1375 1375 1375 1375 1374 1374 1373 1373 1373 1373 1373 1372